Wind_Speed
19 20 21 22 22 21 21 22 22 21 22 22 23 23 24 24 24 25 25 26 26 27 27 27 27 27 26 26 25 24 24 24 24 24 24 24 24 24 23 23 23 23 23 23 23 23 23 23 23 24 24 24 25 25 26 26 26 26 26 25 25 24 24 23 23 23 22 22 22 22 22 23 23 24 24 24 25 25 25 25 25 25 25 26 26 26
19 19 20 21 20 20 20 20 20 20 21 21 22 23 23 24 24 25 26 26 26 26 26 26 26 25 24 24 23 23 22 22 22 22 22 22 22 22 22 22 22 22 22 23 23 23 23 23 24 24 24 24 24 25 26 26 26 25 25 25 24 24 24 23 23 23 22 22 22 22 23 23 23 24 24 24 24 25 25 25 25 25 25 26 26 26
18 18 18 19 19 19 19 20 20 20 20 21 22 22 23 23 24 25 25 26 26 26 26 25 24 23 22 22 21 21 21 21 21 21 21 21 21 21 21 21 22 22 22 23 23 23 23 24 24 24 24 24 24 25 25 25 25 25 24 24 24 24 24 24 23 23 23 23 23 23 23 23 23 24 24 24 24 24 24 25 25 25 26 26 26 27
17 17 17 17 18 18 19 19 19 20 20 21 22 22 23 23 24 25 25 26 26 25 25 24 22 22 21 21 20 20 20 20 19 19 20 20 20 20 20 21 21 22 22 22 23 23 23 23 23 23 23 24 24 24 25 25 25 24 24 24 24 24 25 24 24 24 24 23 23 23 24 24 24 24 24 25 25 25 25 25 26 26 26 27 27 27
16 15 15 15 15 16 17 18 19 20 21 21 22 22 22 23 23 24 24 25 24 24 23 22 21 20 20 20 19 19 19 19 18 18 18 18 18 19 19 19 19 20 20 21 21 21 21 22 22 22 23 23 23 24 24 24 24 24 24 24 24 25 25 25 25 25 25 25 25 25 25 25 25 26 26 26 26 26 27 27 27 28 28 28 28 28
14 13 14 14 15 16 17 18 19 20 20 21 21 22 22 22 23 23 23 23 22 22 21 20 20 19 19 19 19 19 19 19 19 18 18 18 18 17 17 17 17 18 18 18 18 19 19 20 20 21 21 21 22 22 23 23 23 24 24 24 24 24 25 25 26 26 26 27 27 27 27 27 27 27 27 27 27 27 28 28 28 29 29 29 29 29
13 13 14 14 16 17 18 18 19 19 19 20 21 21 21 21 21 21 21 21 20 20 19 19 19 20 20 19 19 19 19 19 19 19 18 18 17 16 16 16 16 16 16 16 16 17 17 18 18 18 19 19 20 20 20 21 21 22 22 23 23 24 24 24 25 26 26 27 27 27 28 27 27 27 27 27 28 28 28 28 29 29 30 30 30 29
13 13 13 14 15 16 17 18 18 18 18 18 19 20 19 19 19 19 19 19 18 18 18 19 20 20 20 20 19 19 19 19 19 18 18 17 16 15 15 15 15 15 15 15 15 15 15 16 16 16 17 17 18 18 19 19 20 20 21 21 22 23 23 24 24 25 25 26 26 26 27 27 27 27 28 28 28 28 29 29 30 30 30 30 30 29
13 13 14 14 15 15 16 16 16 16 17 17 18 18 19 19 18 18 17 16 15 15 16 18 19 20 20 20 19 18 18 18 17 17 16 16 16 16 15 16 15 15 15 15 15 15 15 15 16 16 16 17 17 17 18 18 19 19 20 21 21 22 22 23 24 24 25 25 26 26 27 27 27 28 28 29 29 29 30 30 31 31 31 30 30 29
13 13 13 14 14 14 14 15 15 16 16 17 17 17 17 16 16 15 14 13 13 14 15 17 19 20 21 20 19 18 18 17 16 15 15 15 16 16 17 17 17 17 17 17 17 17 17 16 16 16 16 16 16 17 17 18 19 19 20 20 21 21 22 23 23 24 25 25 26 27 27 28 28 29 29 29 30 30 31 31 31 31 31 30 29 28
11 12 12 12 13 13 14 15 15 15 15 15 14 14 13 12 12 12 12 13 14 15 17 18 19 20 20 20 19 18 17 16 15 15 14 15 16 16 17 18 18 19 19 19 19 18 17 17 17 16 16 16 16 17 17 18 19 19 20 21 21 22 22 23 23 24 25 26 26 27 28 28 29 29 30 30 30 30 31 31 31 31 30 30 29 28
9 10 11 12 12 13 13 14 13 12 11 11 10 10 9 9 9 10 12 14 16 17 18 18 19 19 19 19 19 17 16 16 15 14 14 14 15 16 17 19 19 20 21 21 20 19 17 17 16 16 16 16 16 17 18 18 19 20 20 21 21 22 22 23 24 24 25 26 27 27 28 28 29 29 30 30 31 31 31 31 31 31 30 29 29 28
9 9 10 11 11 11 11 10 9 8 8 8 8 8 9 9 10 12 14 15 16 16 17 18 18 19 19 18 17 16 15 15 14 14 14 14 15 17 18 20 21 22 23 22 21 19 17 17 16 16 16 16 17 17 18 19 19 20 20 21 21 21 22 23 23 24 25 26 26 27 27 28 29 29 30 31 31 31 32 32 32 31 31 30 30 29
7 8 8 9 9 9 8 7 7 7 7 8 9 10 11 12 12 13 13 13 14 14 16 17 18 19 18 17 15 14 14 13 13 14 14 15 16 18 20 21 23 23 23 23 21 19 17 17 17 17 16 17 17 18 18 19 19 19 20 20 20 20 21 21 22 23 23 24 25 26 26 27 28 28 29 30 31 31 31 31 32 32 31 31 30 30
7 7 8 8 8 7 7 7 7 8 9 10 11 12 12 12 11 12 12 12 13 14 16 17 18 18 17 15 14 13 12 12 13 14 15 16 18 19 21 22 23 23 23 22 21 19 18 18 18 18 18 18 18 19 19 19 19 19 19 19 19 19 19 20 20 21 21 22 23 23 24 25 26 27 28 29 29 30 30 30 30 31 30 30 30 31
8 9 9 9 8 8 8 9 9 10 11 12 12 12 11 10 10 10 11 12 13 15 16 17 17 17 16 15 13 12 11 11 13 15 17 19 20 21 22 23 24 23 22 21 21 20 19 19 19 19 19 19 19 19 20 20 20 19 19 18 18 18 18 18 19 19 20 21 21 22 22 23 24 25 26 27 27 28 28 29 29 29 29 29 30 30
9 9 9 10 10 10 10 11 12 13 13 12 11 10 9 10 10 11 12 14 14 15 15 14 15 15 15 15 13 12 12 13 14 17 20 22 22 22 22 23 23 23 22 21 21 21 21 20 20 20 20 21 21 21 21 20 20 19 19 18 18 18 18 18 19 19 20 20 21 22 22 23 24 24 25 26 26 27 28 28 29 29 29 29 29 29
8 8 9 10 11 11 11 12 12 12 11 10 10 10 10 11 12 13 14 15 15 14 14 13 14 14 15 15 14 14 14 15 16 19 21 24 24 23 22 22 22 22 22 21 21 21 21 22 22 22 22 22 22 22 21 21 20 19 19 18 18 18 18 19 19 20 21 21 22 22 23 23 24 25 25 26 26 27 28 28 28 29 28 28 29 29
8 8 9 10 11 11 11 11 10 10 9 9 9 10 11 12 13 14 14 14 14 13 13 14 14 15 16 16 16 17 17 17 18 20 23 26 26 23 21 21 21 22 22 22 22 22 22 23 23 23 23 23 23 22 22 21 20 19 19 18 18 18 19 19 20 20 21 21 22 22 23 23 24 25 25 26 27 27 28 28 29 29 29 29 29 29
9 9 10 10 10 10 10 10 10 10 10 11 12 13 14 14 14 14 14 13 13 13 14 15 16 16 17 18 18 19 19 20 21 22 24 27 26 23 20 20 21 22 23 23 22 22 23 24 24 24 24 24 24 23 23 21 20 19 19 18 18 19 19 19 19 20 20 20 21 22 22 23 23 24 25 26 26 27 27 28 29 29 29 29 29 29
11 11 11 10 10 10 11 11 11 12 13 14 15 15 15 14 13 13 12 12 13 14 15 16 17 17 17 18 19 21 22 22 22 23 24 26 25 23 20 20 21 22 23 24 23 23 24 25 26 26 26 25 25 24 23 22 20 19 19 18 18 19 19 19 19 19 19 20 20 21 21 22 23 24 24 25 26 26 27 27 28 29 29 29 29 29
14 14 13 13 13 13 13 14 15 15 16 16 15 14 13 12 12 13 13 14 15 15 16 17 18 19 20 22 23 24 24 23 22 21 23 25 25 23 21 20 21 22 24 25 24 24 25 26 27 27 27 27 26 25 23 22 20 19 19 19 19 19 19 19 19 19 19 19 19 20 20 21 22 23 24 24 25 26 26 27 28 29 29 30 31 30
16 17 17 16 16 16 17 17 17 17 17 15 13 11 10 11 13 14 15 15 16 16 17 18 20 22 23 25 25 25 24 22 20 19 20 22 24 23 21 21 21 23 25 25 25 25 26 27 28 28 28 27 27 25 23 21 20 19 19 19 19 19 19 19 19 19 19 19 19 19 20 20 21 22 23 24 25 25 26 27 28 29 29 30 31 32
15 16 16 17 17 17 17 18 18 18 16 15 12 10 9 11 13 15 15 16 17 19 21 22 23 24 25 26 25 24 22 20 17 17 18 21 23 23 22 22 22 23 25 25 25 26 27 27 28 29 29 28 27 25 23 21 20 19 19 20 20 20 20 20 20 20 20 20 20 20 20 20 21 21 22 23 23 24 25 26 27 28 29 30 31 31
14 15 15 16 16 17 17 17 18 17 17 15 12 10 10 12 15 17 18 18 20 21 22 22 23 24 25 24 23 22 21 18 16 15 17 20 22 23 23 23 23 24 25 26 26 26 27 29 29 30 30 29 27 25 23 21 20 20 21 21 21 21 21 21 21 21 21 21 21 20 20 20 20 20 21 21 21 22 23 24 25 26 27 28 29 30
14 14 15 16 16 17 17 17 17 17 16 15 13 12 12 15 17 19 20 21 21 21 21 21 22 24 25 24 23 22 20 18 17 16 17 19 22 23 24 23 22 23 25 26 26 26 28 30 31 31 30 29 27 25 23 23 22 22 22 22 22 22 22 22 22 22 22 22 22 22 21 21 21 21 21 21 21 21 21 22 23 24 25 25 26 27
13 14 14 15 16 16 17 17 16 16 15 14 13 13 14 16 18 20 21 21 21 20 21 21 23 24 25 24 23 22 21 19 18 17 18 20 22 24 24 22 21 22 24 25 27 27 29 31 31 31 30 29 27 26 25 25 25 24 24 24 24 23 23 23 23 23 23 23 23 23 23 23 22 22 22 21 21 21 21 21 22 22 23 23 25 26
14 14 14 15 15 16 16 16 15 14 13 13 13 13 14 16 18 21 21 21 21 21 21 22 23 24 24 24 24 23 22 22 20 19 18 19 21 22 22 21 20 21 23 26 28 30 30 31 31 31 30 29 28 28 27 27 26 26 25 25 24 24 24 24 24 24 24 24 24 24 24 24 24 23 22 22 21 21 21 21 21 22 22 23 25 27
16 15 15 15 15 15 15 14 13 12 12 11 11 12 14 16 18 20 21 20 21 22 23 24 24 24 24 24 25 25 25 23 20 17 15 16 18 20 20 20 20 21 23 26 30 32 32 31 30 29 29 29 29 29 29 28 27 27 26 25 25 24 24 25 25 25 26 26 26 26 25 25 24 24 23 22 22 21 21 21 21 21 22 23 25 27
16 16 15 14 14 14 13 13 12 11 11 10 11 12 13 16 18 19 20 21 22 23 23 24 24 23 23 24 24 25 25 21 17 13 13 14 17 19 21 21 21 22 23 26 29 31 32 32 30 28 28 29 29 29 29 29 28 28 27 27 26 26 26 26 26 27 27 27 27 27 26 26 25 24 24 23 22 21 21 20 20 20 21 23 24 26
15 14 13 13 12 12 12 11 11 11 11 11 12 13 14 16 17 19 19 21 21 22 22 23 23 22 22 22 22 22 22 19 15 13 14 15 18 22 23 23 24 24 24 24 25 27 30 32 32 30 29 30 31 31 30 30 29 29 28 28 28 27 27 27 28 28 28 28 28 28 27 26 25 25 24 23 22 22 21 20 19 19 20 22 24 25
13 12 11 11 10 10 10 10 10 10 11 11 12 13 15 16 17 18 19 19 20 21 21 22 22 22 23 23 23 23 24 21 18 17 18 19 21 24 24 24 24 24 24 23 23 24 26 30 33 34 33 32 32 32 31 30 30 29 29 29 29 29 29 29 29 29 30 29 29 28 27 26 25 24 24 23 22 22 21 20 19 19 20 22 23 24
11 11 10 10 9 9 9 10 10 11 12 12 13 14 15 16 17 18 19 19 20 20 21 21 22 23 23 23 24 26 26 24 22 20 20 21 23 24 24 24 25 25 26 25 25 25 26 29 33 35 35 34 32 31 31 30 30 29 28 29 29 30 30 30 30 30 30 30 29 28 27 26 25 24 24 23 23 22 22 21 20 20 20 22 23 24
10 9 9 9 9 9 10 10 11 12 13 14 15 15 16 17 18 19 19 20 20 20 21 21 22 22 23 24 25 26 26 24 22 20 20 21 22 23 24 25 26 27 27 27 26 26 27 29 31 32 33 34 33 32 31 30 29 29 28 28 29 30 30 30 30 30 30 30 29 28 27 27 26 25 24 24 23 23 23 22 21 21 21 21 22 24
10 9 9 9 9 10 10 11 12 13 14 15 15 16 17 18 19 19 20 20 21 21 21 21 22 22 22 23 24 25 25 23 21 20 20 21 22 24 25 26 27 27 27 27 26 26 27 28 29 30 32 34 34 33 31 29 29 29 29 29 29 30 30 30 30 30 30 29 29 28 28 27 26 26 26 25 24 24 23 23 22 21 21 21 21 22
9 9 9 9 10 10 11 12 12 13 14 15 15 16 17 18 19 20 21 21 22 22 22 22 22 22 22 23 23 24 23 22 20 20 20 21 22 24 25 26 26 26 26 26 27 27 28 29 30 30 31 32 33 33 32 30 29 29 30 30 31 31 31 30 30 29 29 29 29 28 28 27 27 27 27 26 25 25 24 23 22 21 21 20 20 20
9 9 9 10 10 11 11 12 13 14 15 15 16 17 18 19 20 21 21 22 22 22 22 22 22 22 22 22 22 22 21 20 19 19 20 20 21 23 24 25 25 24 25 26 27 27 28 30 31 30 30 30 30 31 32 32 32 32 33 33 32 32 31 30 29 29 29 29 29 28 28 28 28 28 27 27 26 25 24 23 22 21 21 21 21 21
10 10 10 10 11 11 12 13 14 15 16 17 18 18 19 20 20 21 21 21 21 21 21 21 21 21 21 21 21 20 20 19 18 18 18 18 19 21 22 23 24 23 23 24 25 26 27 29 30 31 31 31 31 31 33 33 34 35 35 34 33 32 31 30 29 29 29 29 29 29 28 28 28 28 27 27 26 26 25 25 24 24 24 24 24 24
10 10 11 11 11 12 13 14 15 16 17 17 18 19 19 20 20 20 20 20 20 20 20 20 20 20 19 19 19 19 18 18 17 17 17 17 18 19 20 21 22 23 22 22 23 24 26 28 30 31 31 32 33 34 34 34 35 36 36 36 35 33 31 30 29 29 29 29 30 30 29 28 28 27 27 27 27 27 27 27 27 26 26 27 27 27
11 11 11 12 12 13 14 15 16 16 17 18 18 18 19 19 19 19 19 19 18 18 18 18 18 18 18 18 17 17 17 17 16 16 16 16 17 17 19 20 21 21 21 21 22 23 25 28 29 30 31 32 34 35 36 36 36 35 35 35 36 36 33 31 30 30 30 30 30 30 30 29 28 28 28 27 27 27 28 28 28 28 28 28 28 29
11 11 12 12 12 13 14 15 16 17 17 18 18 18 18 18 18 18 18 17 17 17 16 17 17 17 18 17 17 17 17 17 16 16 16 16 16 17 18 19 20 20 21 22 23 24 26 28 30 31 32 33 34 35 35 36 35 34 33 34 36 36 35 33 31 31 30 30 30 29 29 29 29 28 28 28 28 28 28 28 29 29 29 29 29 30
11 12 12 12 13 14 15 16 16 17 17 18 18 18 18 18 18 18 17 17 17 16 16 17 17 18 18 19 19 18 18 18 17 17 17 17 17 17 17 18 19 20 21 22 24 25 26 28 29 31 32 33 33 34 35 36 36 34 34 35 35 36 36 34 32 31 31 31 30 30 29 29 30 29 29 29 29 30 30 30 30 30 30 30 30 30
12 12 12 13 13 14 15 16 17 17 18 18 18 18 17 17 17 17 17 17 17 17 17 17 18 19 20 21 21 20 19 19 18 18 18 18 17 17 18 18 19 19 20 22 24 26 27 28 29 31 31 32 33 34 35 36 37 36 35 34 34 35 36 35 33 32 31 31 31 31 30 30 31 31 31 31 32 32 32 32 32 32 32 32 32 32
12 12 12 13 14 15 15 16 17 17 18 18 18 17 17 17 17 17 17 17 17 17 18 18 19 20 21 22 22 22 21 20 20 19 18 18 17 17 17 18 18 19 20 22 24 26 27 28 29 30 30 31 32 34 35 36 37 37 36 34 33 33 34 35 34 34 33 33 32 32 31 31 32 32 33 33 33 33 33 33 33 33 33 33 33 32
12 12 13 13 14 15 16 16 17 17 17 17 17 17 17 17 17 17 17 18 18 18 18 19 19 20 21 22 22 22 22 22 21 20 19 18 17 17 17 17 18 18 19 21 23 25 27 29 30 30 30 31 32 34 35 36 36 37 36 34 33 33 34 34 34 34 34 34 33 33 32 32 32 33 33 34 34 34 34 34 35 35 34 34 33 32
12 12 13 14 15 15 16 16 17 17 17 17 17 17 17 17 17 17 18 18 19 19 19 19 20 20 22 22 22 22 23 23 22 21 20 19 19 18 18 17 18 18 19 21 22 24 26 27 29 30 30 32 33 34 35 35 35 35 35 34 33 33 33 34 34 33 33 33 34 34 33 32 32 32 33 34 35 36 36 35 35 35 34 34 33 33
13 13 14 14 15 16 16 16 17 17 17 17 17 17 17 17 18 18 19 19 19 19 20 20 20 21 21 22 22 22 23 23 23 23 22 21 21 20 20 20 20 20 20 21 23 24 25 27 28 28 30 32 33 34 34 33 33 33 33 33 32 33 33 34 34 33 33 33 33 33 33 32 31 32 33 35 36 37 37 36 35 34 34 33 33 32
13 14 14 15 15 16 16 17 17 17 17 17 17 17 18 18 18 19 19 20 20 20 20 20 20 21 21 22 22 22 22 23 23 24 24 23 23 22 22 22 22 22 22 23 23 24 26 27 27 27 28 29 32 33 34 32 31 31 31 31 32 32 33 34 34 33 33 33 33 32 32 31 31 32 34 35 37 37 37 36 35 34 33 32 32 31
13 14 14 15 16 16 16 17 17 18 18 18 18 18 19 19 19 19 20 20 20 20 20 20 20 21 21 22 22 22 22 22 23 24 24 24 24 24 24 24 24 24 24 24 25 25 26 27 27 27 26 26 28 30 32 31 31 30 30 30 31 32 33 33 33 32 32 31 32 32 31 31 32 33 34 35 36 37 37 36 35 34 32 31 30 29
13 14 15 16 16 17 17 18 18 18 19 19 19 20 20 20 20 20 20 20 19 19 19 19 20 20 21 22 22 22 22 23 24 25 25 25 25 25 25 25 25 25 26 26 26 26 27 27 28 27 25 24 24 26 28 30 30 30 30 30 30 30 31 31 31 31 31 31 32 33 33 33 34 34 34 34 35 36 37 37 35 33 31 30 29 28
14 14 15 16 16 17 18 18 19 19 19 20 20 20 21 21 21 20 20 19 19 19 19 19 19 20 21 22 22 22 23 23 25 26 26 26 26 26 26 26 26 26 27 27 27 26 26 27 27 27 26 24 22 22 23 26 28 29 29 29 29 29 29 30 31 31 31 32 33 34 34 34 34 33 33 33 34 35 36 36 35 33 32 30 29 29
Wind_Direction
252 257 261 264 267 269 273 275 277 280 282 284 286 287 290 292 294 295 296 297 297 298 299 300 301 302 302 302 301 301 300 299 299 298 298 297 297 297 296 296 295 295 294 294 293 292 292 291 290 289 288 287 286 285 285 284 284 284 283 282 280 278 277 277 278 278 277 276 276 275 275 273 272 271 271 270 270 270 270 270 271 272 273 273 273 272
256 259 264 267 270 272 274 276 278 280 283 285 287 289 292 294 296 297 298 298 298 299 300 302 302 302 303 302 302 302 301 299 298 297 297 296 296 295 295 294 294 293 292 292 291 291 290 289 288 288 287 286 285 284 284 284 284 284 283 281 279 278 277 277 278 278 277 276 276 275 275 274 273 273 272 272 272 272 272 272 273 274 274 274 273 273
261 264 267 271 274 275 277 279 280 282 284 286 289 291 293 295 296 297 299 300 301 302 303 304 304 305 305 304 304 303 301 300 298 296 295 295 294 294 294 293 293 292 291 291 290 290 289 289 288 287 287 286 285 284 284 284 284 283 282 281 279 277 276 277 277 277 277 277 276 276 276 275 275 275 275 274 274 274 274 274 274 274 273 273 273 272
267 270 273 277 280 282 283 285 286 288 289 290 292 293 294 296 297 298 300 303 304 305 306 307 308 308 308 308 307 305 303 300 298 296 295 294 294 293 293 292 292 291 290 290 289 289 288 288 287 287 286 286 285 284 284 284 283 282 280 278 277 275 274 275 276 276 276 276 276 276 276 276 275 275 275 274 274 274 274 274 273 273 272 272 272 273
270 274 276 279 282 285 286 288 290 292 293 293 294 296 297 298 300 302 304 305 307 308 309 310 311 312 312 312 310 308 305 303 301 299 298 297 296 294 293 293 291 290 289 288 287 287 286 286 285 285 285 284 283 283 282 282 281 279 278 276 275 274 273 273 273 273 273 274 274 274 274 274 274 274 274 274 274 274 274 274 274 274 273 273 273 274
271 274 277 279 281 283 287 289 291 293 294 295 296 298 301 302 303 304 305 307 308 309 310 311 312 314 315 315 313 312 310 308 306 305 304 302 301 299 298 296 294 292 290 288 287 285 284 283 282 282 282 282 281 281 280 279 278 278 277 276 275 274 273 272 272 271 271 271 271 272 273 274 274 275 275 276 276 276 276 276 276 276 276 276 275 275
271 274 278 280 283 285 289 291 292 293 295 297 300 302 303 304 304 303 304 305 306 308 310 312 314 316 317 317 316 315 313 311 310 309 308 307 306 305 303 301 299 297 295 292 289 286 284 282 281 281 281 281 281 280 279 279 278 277 277 277 276 275 275 274 274 273 273 273 274 275 275 276 277 278 278 279 279 279 279 278 278 278 278 277 277 277
274 276 276 278 282 287 290 292 293 294 295 298 300 301 301 300 299 299 300 303 306 309 311 314 316 317 318 318 317 314 312 311 311 311 310 310 309 308 307 306 304 303 301 298 295 292 289 286 285 284 283 283 283 282 282 281 280 280 279 278 278 278 277 277 277 277 278 278 278 279 279 280 280 280 280 280 280 280 279 279 279 278 278 278 278 278
279 279 278 279 282 286 289 290 291 292 294 295 295 295 294 294 296 299 303 305 307 309 311 312 313 314 316 316 315 313 311 311 312 313 314 314 314 313 312 311 309 309 308 306 304 302 300 297 295 292 290 288 287 286 285 284 283 282 281 281 280 280 280 280 280 280 280 280 280 280 280 280 280 280 280 280 280 280 279 279 278 278 278 278 278 278
285 285 285 286 286 287 287 288 289 290 292 292 292 292 294 297 301 306 309 307 305 304 305 306 308 310 313 314 314 314 315 315 315 316 318 318 318 317 316 315 315 314 314 313 311 310 308 306 303 300 296 294 291 289 288 287 285 284 283 282 282 281 281 281 281 280 280 280 280 280 279 279 279 279 279 279 279 279 278 278 278 279 279 279 278 277
287 287 288 288 289 288 287 288 290 291 292 292 292 295 301 303 306 307 305 300 298 299 300 302 306 309 311 313 315 317 319 320 321 322 321 319 318 317 315 315 315 315 315 314 313 313 312 309 306 303 299 296 294 291 290 288 287 286 285 284 283 283 282 281 281 280 279 279 279 278 278 278 278 278 277 277 277 277 277 277 278 278 278 278 277 277
283 283 285 286 286 286 287 291 294 295 292 289 289 290 293 296 296 294 293 293 295 298 301 303 305 308 310 313 316 319 322 323 323 323 321 317 314 313 311 310 311 312 313 313 314 314 314 311 308 305 301 298 296 294 292 291 290 289 288 287 286 285 284 283 282 280 279 278 278 277 277 276 276 276 275 275 275 275 275 275 276 276 276 276 276 275
277 279 283 285 286 286 288 289 288 284 278 273 272 276 279 281 282 284 287 290 294 298 302 303 305 306 310 314 317 320 323 322 321 318 314 311 309 308 308 308 309 312 314 315 316 318 317 314 311 308 305 302 300 298 297 296 295 295 294 293 292 290 288 286 283 282 280 279 278 277 277 276 275 275 275 274 274 274 273 273 273 273 274 274 274 273
269 272 276 278 280 282 282 276 270 264 261 261 265 272 278 281 283 285 288 290 292 295 299 300 302 304 309 313 318 322 323 321 317 313 308 306 306 307 308 308 310 313 316 316 317 319 320 317 314 312 309 306 305 304 304 303 303 302 301 299 296 293 290 287 285 283 282 281 280 279 278 277 276 275 275 274 274 274 273 273 272 272 273 272 272 271
257 259 260 263 267 268 267 263 260 260 261 265 271 277 282 284 285 286 287 288 290 293 296 299 301 304 308 313 319 324 323 319 313 309 305 304 307 310 310 309 310 313 316 316 318 320 321 319 317 316 314 312 311 311 311 310 310 308 305 302 298 295 291 289 287 285 284 283 282 281 280 279 277 276 276 276 275 275 274 273 273 272 273 272 272 271
251 253 253 257 258 258 257 257 259 263 268 272 277 282 284 283 283 283 283 286 289 294 298 301 304 306 309 315 321 326 323 316 311 308 307 305 309 313 313 311 310 312 316 318 319 321 322 321 320 319 318 317 317 317 316 315 314 312 309 305 301 298 295 292 290 289 287 286 285 284 283 281 280 279 278 277 277 276 275 274 274 274 274 273 273 272
256 256 256 255 257 259 260 262 264 268 273 277 280 279 278 277 278 279 281 284 289 294 298 302 305 307 309 313 319 323 321 315 310 308 307 307 311 315 317 312 311 313 317 320 321 322 323 323 322 321 320 320 320 320 320 319 317 315 312 309 305 302 299 296 295 293 292 290 289 288 287 285 284 283 281 280 278 277 276 276 275 275 274 274 274 273
259 259 259 260 262 265 266 268 271 274 277 278 277 275 273 273 275 278 282 286 290 295 298 301 301 301 302 303 309 316 318 313 310 308 308 308 312 317 318 315 313 315 319 320 322 322 323 323 323 322 321 321 322 322 322 321 320 318 315 312 309 305 302 300 298 296 294 293 291 290 288 287 285 284 282 280 278 277 276 276 275 275 274 274 274 273
260 261 263 267 270 271 271 270 271 273 274 273 273 273 273 275 277 281 285 289 292 294 296 296 296 295 296 297 304 312 314 312 309 308 307 308 312 317 319 317 316 317 320 321 322 323 324 323 322 322 321 322 322 323 323 323 322 319 317 313 310 307 304 302 300 297 296 294 292 290 288 286 285 283 281 280 278 277 275 275 274 274 274 274 274 273
264 264 265 270 272 271 269 267 266 266 264 266 270 273 275 280 284 287 290 293 295 295 295 294 293 293 294 297 303 308 311 310 308 307 306 308 312 316 319 318 317 318 320 321 322 323 323 322 321 321 321 322 322 323 323 323 322 319 316 313 310 307 305 303 301 299 297 295 293 292 290 288 286 284 282 280 279 278 277 275 274 274 274 274 274 274
263 263 263 265 265 264 264 263 261 261 263 268 274 279 284 289 293 295 296 296 295 294 293 292 291 292 294 295 298 303 308 309 307 306 306 308 311 315 318 318 317 317 317 319 322 322 322 321 320 320 320 321 322 322 322 322 320 318 316 313 311 309 307 306 304 302 300 298 296 293 291 290 288 286 285 283 282 281 279 278 276 275 274 274 274 274
260 259 258 256 256 257 259 259 261 265 271 276 280 285 292 298 300 298 297 295 293 291 290 289 288 289 291 293 297 303 309 309 307 306 305 304 307 313 318 317 314 313 313 316 319 320 320 319 318 318 319 319 320 321 321 320 319 317 315 313 312 311 310 309 308 306 304 302 299 296 294 292 290 289 288 286 285 283 281 279 277 276 274 273 272 272
261 260 259 258 258 259 262 264 269 274 280 282 283 287 295 300 299 297 295 292 289 287 287 288 288 290 292 295 300 306 309 310 309 306 302 298 301 308 314 312 309 308 309 313 316 317 317 317 316 317 317 318 319 320 320 319 317 316 315 315 315 315 315 314 313 311 309 306 303 300 298 295 293 291 290 288 286 284 282 280 278 277 275 274 273 272
265 265 266 267 270 272 276 279 283 286 288 285 280 280 288 292 290 288 285 283 282 282 283 286 289 293 295 298 301 304 307 309 307 302 295 291 295 301 306 305 304 304 307 311 314 314 314 314 315 316 317 318 319 320 320 319 317 316 317 318 319 319 319 318 316 315 313 310 308 305 302 299 297 294 291 289 287 285 283 282 280 279 277 276 275 274
273 273 274 278 281 284 287 289 291 293 293 289 280 272 270 271 270 270 271 274 277 281 286 290 292 293 295 297 299 301 304 306 302 295 289 288 292 297 300 301 301 303 306 310 313 312 312 312 314 316 318 319 321 321 321 320 319 319 320 321 321 321 320 319 317 316 314 312 311 309 306 304 302 299 297 294 291 288 286 284 282 281 279 278 278 277
282 282 283 285 286 288 290 291 293 294 295 291 284 276 268 265 266 269 271 274 278 282 287 289 289 291 293 295 296 298 302 303 299 293 288 288 290 293 297 299 301 302 305 309 311 310 309 310 313 317 319 322 323 323 322 321 321 321 321 321 321 320 319 317 316 315 315 314 313 312 311 309 308 306 304 301 298 295 292 289 287 285 284 283 281 279
287 286 286 286 287 288 289 290 291 291 290 286 281 276 272 269 269 271 272 275 278 282 284 285 286 289 292 293 294 296 299 298 295 292 291 289 288 290 295 300 302 303 304 305 307 307 307 309 313 318 321 323 324 324 323 322 321 320 320 319 318 317 316 316 315 316 316 316 315 315 314 313 312 310 308 306 303 300 297 295 292 290 289 287 285 282
297 294 291 289 289 288 288 288 288 286 283 279 275 271 269 268 269 270 272 276 279 281 281 281 283 286 289 290 292 295 296 295 296 297 297 293 289 289 295 300 301 301 302 303 306 308 309 311 315 319 322 323 323 323 322 320 319 318 317 317 316 316 316 316 317 317 317 317 317 316 315 314 313 312 310 308 306 303 300 297 295 293 290 288 284 281
306 303 300 296 293 290 288 287 286 284 281 277 273 269 267 268 269 272 276 279 280 279 278 279 281 283 286 289 292 295 295 298 303 307 304 297 290 290 295 297 297 298 301 304 307 310 311 313 316 318 320 320 320 319 318 318 317 317 317 317 317 317 317 317 318 318 317 317 316 316 315 315 313 312 311 309 307 305 302 299 296 293 290 286 283 281
303 302 301 298 295 291 289 287 287 286 284 281 277 274 271 271 272 275 278 279 278 277 278 279 281 282 285 288 291 293 294 302 308 309 301 291 285 286 291 292 294 296 300 304 308 310 311 314 316 317 317 316 316 315 316 317 318 319 319 319 319 319 319 318 318 317 317 316 316 315 315 314 313 312 311 310 308 306 304 301 298 294 290 286 283 282
295 294 293 292 290 288 286 285 285 284 282 279 276 274 272 272 273 275 276 277 277 278 279 281 282 282 283 283 284 285 288 296 299 293 287 281 280 284 289 291 294 298 301 303 304 306 308 311 314 315 314 313 313 314 315 317 319 320 321 321 320 319 319 318 317 316 315 315 314 314 313 313 312 311 310 310 308 307 306 304 301 296 292 288 286 284
291 289 288 287 286 285 284 283 282 281 279 276 274 273 274 274 275 277 278 279 281 282 282 283 283 283 283 281 279 280 285 290 290 286 283 281 283 286 289 292 295 298 301 300 299 299 300 304 309 313 314 313 313 315 316 317 318 319 320 319 318 318 319 318 316 314 314 313 313 312 312 312 312 312 311 311 310 310 309 308 304 300 295 291 289 288
290 289 288 288 287 287 287 286 285 285 284 283 282 282 282 282 282 283 283 284 285 286 285 284 284 284 284 283 283 284 288 291 291 290 288 286 286 288 290 292 293 296 299 299 298 295 295 298 304 310 312 313 313 313 314 316 317 318 318 317 316 316 317 316 314 313 312 312 312 312 313 313 313 313 313 313 312 312 311 310 307 302 297 293 291 290
292 291 291 290 290 290 290 290 292 292 293 293 292 291 291 290 290 289 290 290 289 289 288 286 285 285 285 284 285 287 291 293 294 294 292 288 287 288 290 291 292 294 296 297 298 297 296 298 301 305 308 311 312 312 312 314 316 317 317 315 314 313 314 314 313 312 312 312 312 312 313 314 315 316 315 315 314 313 312 311 307 302 297 293 290 290
294 292 292 292 292 292 293 295 296 297 297 297 296 294 293 293 293 293 294 294 294 293 291 289 288 286 285 284 285 287 291 294 294 293 289 285 284 286 288 289 291 293 295 296 297 297 297 299 300 302 304 307 310 312 313 314 315 316 315 314 313 312 313 313 312 312 312 312 312 312 314 315 316 316 316 315 315 313 312 309 306 301 297 292 288 286
294 293 293 293 294 295 296 296 296 296 296 294 292 291 291 292 292 293 294 295 295 295 294 293 291 289 287 286 285 287 291 293 292 289 285 283 283 284 286 288 291 292 293 294 295 296 297 299 301 302 302 302 305 309 313 315 315 314 314 315 315 314 314 315 314 313 313 313 313 313 315 316 316 315 314 314 313 312 310 307 305 303 301 298 293 288
293 292 292 293 293 294 293 292 292 292 291 289 287 287 288 289 290 292 293 294 295 294 293 292 291 290 289 288 287 288 290 291 289 287 285 284 285 285 286 289 292 292 291 292 294 297 298 299 300 301 300 299 300 304 309 314 315 315 316 317 317 317 317 317 317 316 314 313 313 314 314 314 313 312 312 312 312 312 311 311 311 311 310 308 305 301
289 289 289 289 289 288 288 288 288 288 288 288 287 288 289 290 291 292 293 293 293 292 291 290 289 288 288 287 287 288 288 288 287 287 287 287 287 288 289 291 293 294 294 294 295 297 297 296 296 297 299 300 301 302 306 309 312 314 317 319 319 318 318 319 319 317 315 313 312 312 313 312 312 312 312 313 314 313 313 313 315 315 315 313 311 308
285 285 285 284 284 285 286 287 288 289 289 289 290 292 293 294 294 294 294 293 292 291 290 289 288 287 287 286 286 286 287 287 288 289 290 291 291 292 292 293 295 296 298 299 299 298 296 294 293 293 295 298 301 304 307 308 309 311 315 318 319 319 320 319 318 316 314 313 312 312 313 314 315 314 314 314 314 312 311 311 312 313 313 312 310 309
281 282 283 284 285 287 289 290 291 292 292 294 295 296 297 296 296 295 295 294 294 293 292 291 290 289 288 288 287 287 288 290 292 294 295 296 296 296 296 296 297 300 303 303 302 299 296 294 294 293 294 295 298 302 305 306 308 310 312 312 313 316 320 319 317 315 315 314 314 314 315 316 316 314 313 312 310 308 308 308 309 310 310 308 306 305
280 282 285 287 289 290 291 292 294 295 297 298 298 299 299 299 298 298 298 298 298 297 297 296 294 293 292 291 291 292 293 295 298 299 301 302 302 302 300 300 301 304 306 306 304 301 297 295 294 295 295 296 298 300 302 303 306 307 306 305 307 312 317 317 317 316 316 315 315 315 314 314 312 311 310 309 308 307 307 307 307 308 308 307 305 303
280 282 286 289 291 293 294 295 297 298 299 300 300 301 301 301 301 301 302 302 302 301 300 299 298 297 296 296 296 297 300 302 304 306 307 308 309 309 307 306 307 307 308 306 303 300 298 296 295 294 295 297 297 298 298 301 304 305 304 303 306 310 313 315 316 316 314 314 314 314 313 312 311 311 310 310 309 309 309 308 308 307 307 306 305 304
280 284 288 292 295 296 297 298 299 300 300 301 302 303 303 304 304 305 305 304 303 303 302 302 301 301 301 301 302 303 306 309 311 312 314 315 316 315 313 312 311 310 307 303 300 299 299 298 295 294 296 297 296 295 295 298 301 303 304 305 305 304 304 309 314 316 314 313 313 313 313 313 313 313 312 310 309 309 309 308 308 307 306 306 305 303
283 288 293 296 298 300 301 302 302 303 303 304 304 305 305 306 306 307 306 305 304 304 304 303 303 303 305 306 308 310 312 313 315 317 317 318 317 316 315 312 311 309 305 300 297 297 299 298 296 296 297 296 295 294 294 296 298 300 303 305 305 302 299 304 310 313 313 313 313 314 314 314 314 313 311 309 307 307 307 307 307 307 306 306 305 303
287 292 296 300 303 304 305 305 305 305 305 305 305 306 307 308 308 308 308 307 306 306 306 305 306 307 305 307 310 312 314 315 316 317 318 318 317 315 314 312 310 307 303 298 296 295 295 294 296 298 299 297 294 292 292 294 296 299 302 305 306 305 305 307 310 310 310 311 311 312 313 314 312 309 306 305 304 305 305 305 305 305 305 306 305 303
291 295 299 302 303 303 303 305 306 306 307 307 308 308 309 310 310 310 310 308 308 307 307 307 307 306 305 307 310 313 315 317 317 318 319 319 320 319 317 315 312 308 303 299 298 296 294 294 295 298 298 296 294 292 292 293 295 297 301 305 306 306 307 308 309 309 309 309 309 311 312 312 309 305 302 302 303 304 304 304 304 304 304 305 305 304
295 297 298 300 302 303 304 306 307 308 309 310 311 311 311 311 311 311 310 309 308 308 308 307 307 305 304 306 310 313 315 316 319 320 321 322 322 321 320 318 316 312 308 304 300 298 296 296 297 296 295 293 292 293 296 297 296 297 299 303 304 304 304 305 307 309 309 308 307 309 311 309 306 302 301 302 303 303 303 303 303 303 303 304 304 304
294 296 298 300 302 304 306 307 309 310 312 312 312 312 312 312 312 311 309 308 308 307 307 306 306 305 305 307 311 313 314 315 317 320 321 323 323 322 321 319 317 315 312 308 305 301 299 299 298 296 294 292 291 293 297 300 300 299 300 301 302 301 300 303 305 307 307 306 306 307 307 305 302 301 302 302 302 301 301 301 302 302 303 303 303 303
294 296 299 302 304 306 308 310 311 313 314 314 314 313 312 312 311 310 309 308 308 307 306 306 305 305 305 307 311 315 315 315 317 319 320 321 322 323 322 320 319 317 314 311 308 306 304 303 301 299 296 294 293 294 298 301 302 302 301 299 298 297 298 300 302 303 303 303 303 303 303 301 300 300 301 299 299 299 300 301 302 302 302 303 303 303
296 299 302 304 306 308 310 312 313 315 316 316 316 315 314 313 312 312 311 310 309 308 308 308 307 306 306 308 312 314 315 315 316 318 319 320 321 322 321 321 320 318 315 313 311 308 306 305 303 302 299 296 294 293 296 299 302 302 299 296 294 294 294 296 297 299 300 300 301 301 300 300 300 300 299 298 298 299 301 301 302 302 303 304 303 303
299 301 304 306 308 310 312 313 314 316 316 317 317 317 317 316 315 315 314 314 313 312 311 310 310 308 307 309 312 315 315 315 316 316 318 320 321 320 319 319 318 316 314 311 309 307 305 303 301 301 300 299 296 293 293 296 298 298 295 293 292 292 292 293 295 296 298 298 299 300 301 301 300 300 299 298 297 298 299 300 300 301 303 303 303 303
Height
1485 1485 1485 1485 1485 1486 1485 1486 1486 1486 1486 1486 1487 1487 1487 1487 1487 1487 1487 1487 1487 1487 1486 1485 1484 1483 1482 1481 1480 1479 1478 1477 1476 1474 1474 1473 1472 1471 1471 1470 1470 1469 1469 1469 1468 1468 1468 1468 1468 1468 1468 1468 1467 1467 1467 1467 1466 1466 1466 1466 1466 1466 1466 1466 1466 1466 1466 1466 1465 1465 1465 1465 1465 1465 1465 1464 1464 1464 1464 1464 1464 1464 1464 1464 1464 1464
1483 1483 1483 1483 1484 1484 1484 1484 1484 1485 1485 1485 1485 1485 1486 1486 1485 1485 1485 1485 1485 1484 1484 1483 1482 1481 1480 1478 1478 1477 1476 1474 1474 1473 1472 1471 1471 1470 1469 1469 1468 1468 1468 1467 1467 1467 1467 1466 1466 1466 1466 1466 1465 1465 1465 1464 1464 1464 1464 1464 1464 1464 1464 1464 1464 1463 1463 1463 1463 1463 1463 1463 1462 1462 1462 1462 1462 1462 1462 1462 1462 1462 1461 1461 1461 1461
1482 1482 1482 1482 1482 1483 1483 1483 1483 1483 1483 1484 1484 1484 1484 1484 1484 1483 1483 1483 1483 1482 1482 1481 1480 1479 1478 1477 1476 1475 1474 1473 1472 1471 1470 1470 1469 1468 1468 1468 1467 1467 1466 1466 1465 1465 1465 1464 1464 1464 1464 1463 1463 1463 1463 1463 1463 1463 1462 1462 1462 1462 1462 1462 1462 1461 1461 1461 1461 1461 1460 1460 1460 1460 1460 1459 1459 1459 1459 1459 1459 1459 1459 1458 1458 1458
1480 1481 1481 1481 1481 1481 1482 1482 1482 1482 1482 1482 1482 1483 1483 1482 1482 1482 1481 1481 1481 1480 1479 1478 1478 1477 1475 1474 1473 1473 1472 1471 1470 1470 1469 1468 1468 1467 1467 1466 1466 1465 1465 1464 1464 1463 1463 1463 1463 1462 1462 1462 1461 1461 1461 1461 1461 1461 1460 1460 1460 1460 1460 1459 1459 1459 1459 1459 1458 1458 1458 1458 1458 1457 1457 1457 1457 1457 1457 1456 1456 1456 1456 1456 1455 1455
1479 1480 1480 1480 1480 1480 1480 1480 1480 1481 1481 1481 1481 1481 1481 1480 1480 1480 1479 1479 1478 1478 1477 1476 1476 1475 1474 1473 1472 1471 1470 1469 1469 1468 1468 1467 1466 1466 1465 1465 1464 1464 1463 1463 1463 1462 1462 1461 1461 1461 1460 1460 1460 1459 1459 1459 1458 1458 1458 1458 1458 1458 1458 1457 1457 1457 1457 1456 1456 1456 1456 1455 1455 1455 1454 1454 1454 1454 1454 1454 1453 1453 1453 1453 1453 1453
1478 1479 1479 1479 1479 1479 1479 1479 1479 1479 1479 1479 1479 1479 1479 1478 1478 1478 1478 1477 1477 1476 1475 1474 1474 1473 1472 1471 1470 1469 1468 1468 1467 1467 1466 1465 1465 1464 1464 1463 1463 1463 1462 1462 1461 1461 1460 1460 1460 1459 1459 1458 1458 1458 1458 1457 1457 1457 1457 1456 1456 1456 1455 1455 1455 1454 1454 1454 1453 1453 1453 1453 1452 1452 1452 1452 1452 1452 1451 1451 1451 1451 1450 1450 1450 1450
1478 1478 1478 1478 1478 1478 1478 1478 1478 1478 1478 1478 1478 1478 1477 1477 1477 1476 1476 1476 1475 1474 1473 1473 1472 1471 1471 1470 1469 1468 1467 1466 1466 1465 1464 1464 1463 1463 1463 1462 1462 1461 1461 1460 1460 1459 1459 1459 1458 1458 1458 1457 1457 1456 1456 1456 1455 1455 1455 1454 1454 1453 1453 1453 1452 1452 1452 1451 1451 1451 1450 1450 1450 1450 1450 1449 1449 1449 1449 1449 1448 1448 1448 1448 1448 1448
1476 1477 1477 1477 1477 1477 1477 1477 1477 1477 1477 1477 1477 1477 1476 1476 1476 1475 1475 1474 1473 1473 1472 1471 1470 1469 1469 1468 1468 1467 1466 1465 1464 1463 1463 1463 1462 1462 1461 1461 1460 1460 1459 1459 1459 1458 1458 1457 1457 1456 1456 1456 1455 1455 1454 1454 1454 1453 1453 1453 1452 1452 1451 1451 1450 1450 1449 1449 1449 1448 1448 1448 1448 1448 1447 1447 1447 1447 1446 1446 1446 1446 1445 1445 1445 1445
1475 1475 1476 1476 1476 1476 1477 1476 1476 1476 1476 1476 1476 1476 1476 1475 1475 1474 1473 1473 1472 1471 1470 1469 1469 1468 1468 1467 1466 1465 1464 1464 1463 1462 1462 1461 1461 1460 1460 1459 1459 1458 1458 1458 1457 1457 1456 1456 1455 1455 1454 1454 1454 1453 1453 1453 1452 1452 1451 1450 1450 1449 1449 1449 1448 1448 1448 1447 1447 1447 1446 1446 1446 1445 1445 1445 1444 1444 1443 1443 1443 1443 1443 1443 1443 1443
1473 1474 1474 1475 1475 1476 1476 1476 1475 1475 1475 1475 1475 1475 1474 1474 1473 1473 1472 1471 1471 1470 1469 1469 1468 1467 1466 1465 1465 1464 1463 1462 1462 1461 1461 1460 1459 1459 1458 1458 1458 1457 1457 1456 1456 1455 1455 1454 1454 1453 1453 1453 1452 1452 1451 1451 1450 1450 1449 1448 1448 1448 1447 1447 1446 1446 1445 1445 1445 1444 1444 1443 1443 1443 1443 1442 1442 1441 1441 1441 1440 1440 1440 1440 1440 1440
1473 1473 1473 1474 1474 1474 1475 1475 1475 1475 1474 1474 1473 1473 1473 1473 1472 1472 1471 1470 1469 1469 1468 1468 1467 1466 1465 1464 1463 1463 1462 1461 1460 1460 1459 1459 1458 1458 1458 1457 1456 1456 1455 1455 1454 1454 1453 1453 1452 1452 1451 1451 1451 1450 1449 1449 1448 1448 1447 1447 1446 1446 1445 1445 1444 1444 1443 1443 1442 1442 1442 1441 1441 1440 1440 1439 1439 1439 1438 1438 1438 1438 1438 1438 1438 1437
1472 1472 1473 1473 1473 1473 1473 1474 1474 1473 1473 1473 1473 1473 1472 1472 1472 1471 1470 1469 1468 1468 1467 1466 1465 1464 1463 1463 1462 1461 1460 1459 1459 1458 1458 1458 1458 1457 1457 1456 1455 1455 1454 1453 1453 1452 1452 1451 1451 1450 1450 1449 1449 1448 1448 1447 1447 1446 1445 1445 1444 1444 1443 1443 1442 1442 1441 1440 1440 1439 1439 1439 1438 1438 1438 1437 1437 1436 1436 1435 1435 1435 1435 1435 1435 1435
1471 1472 1472 1472 1472 1473 1473 1473 1473 1473 1473 1473 1473 1473 1472 1472 1471 1470 1469 1468 1467 1466 1465 1464 1463 1463 1462 1462 1461 1460 1459 1458 1458 1458 1458 1457 1457 1456 1455 1455 1454 1453 1452 1452 1451 1450 1450 1449 1449 1448 1448 1448 1447 1447 1446 1445 1445 1444 1443 1443 1442 1442 1441 1440 1440 1439 1438 1438 1438 1437 1437 1436 1436 1435 1435 1434 1434 1433 1433 1433 1433 1432 1432 1432 1432 1432
1471 1471 1471 1472 1472 1472 1473 1473 1473 1473 1473 1473 1472 1471 1471 1470 1469 1469 1468 1467 1466 1465 1464 1463 1462 1461 1461 1460 1460 1459 1458 1458 1457 1457 1457 1456 1456 1455 1454 1453 1452 1452 1451 1450 1449 1449 1448 1448 1447 1447 1447 1446 1445 1445 1444 1443 1443 1442 1442 1441 1440 1439 1439 1438 1438 1437 1436 1436 1435 1435 1434 1434 1433 1433 1432 1432 1431 1431 1431 1430 1430 1429 1429 1429 1429 1429
1470 1471 1471 1471 1471 1472 1472 1473 1473 1472 1472 1471 1470 1470 1469 1469 1468 1468 1467 1466 1465 1464 1463 1462 1461 1460 1459 1459 1458 1458 1458 1457 1457 1456 1455 1455 1455 1454 1453 1452 1451 1450 1449 1448 1448 1447 1447 1446 1446 1445 1445 1444 1444 1443 1443 1442 1441 1440 1440 1439 1438 1438 1437 1436 1436 1435 1434 1434 1433 1433 1432 1432 1431 1430 1430 1429 1429 1428 1428 1428 1427 1427 1427 1427 1427 1426
1470 1470 1470 1470 1471 1471 1471 1471 1471 1471 1470 1469 1469 1468 1468 1468 1467 1466 1465 1464 1463 1463 1462 1461 1459 1458 1458 1458 1458 1457 1457 1457 1456 1455 1454 1453 1453 1453 1452 1451 1449 1448 1448 1447 1446 1445 1445 1445 1444 1443 1443 1443 1442 1441 1441 1440 1439 1438 1438 1437 1436 1436 1435 1434 1433 1433 1432 1432 1431 1431 1430 1429 1429 1428 1428 1427 1427 1426 1426 1425 1425 1424 1424 1424 1424 1423
1468 1469 1469 1469 1469 1470 1470 1470 1469 1469 1468 1468 1468 1468 1467 1466 1466 1465 1464 1463 1462 1461 1461 1460 1458 1458 1456 1456 1456 1457 1456 1456 1455 1454 1453 1452 1451 1451 1451 1449 1448 1447 1446 1445 1445 1444 1444 1443 1443 1442 1441 1441 1440 1440 1439 1438 1438 1437 1436 1435 1434 1434 1433 1433 1432 1431 1430 1430 1429 1428 1428 1427 1427 1426 1425 1425 1424 1424 1423 1423 1422 1422 1422 1421 1421 1421
1468 1468 1468 1468 1468 1468 1468 1468 1468 1468 1467 1467 1467 1466 1466 1465 1464 1463 1462 1462 1461 1460 1459 1458 1458 1457 1456 1455 1455 1455 1456 1455 1454 1453 1452 1450 1449 1449 1449 1448 1447 1445 1445 1444 1443 1443 1442 1442 1441 1440 1440 1439 1439 1438 1437 1437 1436 1435 1434 1433 1433 1432 1431 1431 1430 1429 1428 1428 1427 1427 1426 1425 1424 1424 1423 1423 1422 1421 1421 1420 1420 1419 1419 1418 1418 1418
1467 1467 1467 1467 1467 1467 1467 1467 1467 1466 1466 1466 1465 1464 1464 1463 1462 1462 1461 1460 1459 1459 1458 1458 1457 1456 1455 1455 1454 1454 1454 1454 1453 1452 1450 1448 1448 1447 1447 1446 1445 1444 1443 1443 1442 1442 1441 1440 1440 1439 1438 1438 1437 1436 1436 1435 1434 1433 1433 1432 1431 1431 1430 1429 1428 1428 1427 1426 1425 1424 1423 1423 1422 1421 1421 1420 1419 1419 1418 1418 1417 1417 1416 1416 1416 1415
1466 1466 1466 1466 1466 1466 1466 1466 1465 1465 1465 1464 1463 1463 1462 1461 1461 1460 1459 1459 1458 1458 1457 1457 1456 1455 1455 1454 1453 1453 1453 1453 1452 1451 1449 1447 1446 1446 1446 1445 1444 1443 1442 1442 1441 1441 1440 1439 1438 1438 1437 1436 1435 1435 1434 1433 1433 1432 1431 1430 1430 1429 1428 1427 1426 1426 1425 1424 1423 1422 1421 1421 1420 1419 1418 1418 1417 1416 1415 1415 1414 1414 1413 1413 1413 1413
1465 1465 1465 1465 1465 1465 1464 1464 1464 1463 1463 1462 1461 1461 1460 1459 1459 1458 1458 1458 1457 1457 1456 1456 1455 1454 1454 1453 1453 1452 1452 1452 1451 1450 1448 1446 1444 1444 1444 1444 1443 1442 1441 1440 1440 1439 1438 1438 1437 1436 1435 1434 1434 1433 1433 1432 1431 1430 1430 1429 1428 1427 1426 1425 1425 1424 1423 1422 1421 1420 1419 1418 1418 1417 1416 1415 1414 1414 1413 1413 1412 1411 1411 1410 1410 1410
1463 1463 1463 1463 1463 1463 1463 1462 1462 1461 1461 1460 1460 1459 1459 1458 1458 1458 1457 1457 1456 1456 1455 1455 1454 1453 1453 1452 1451 1451 1451 1451 1450 1449 1447 1445 1443 1443 1443 1443 1442 1441 1440 1439 1438 1438 1437 1436 1435 1434 1433 1433 1432 1432 1431 1430 1429 1429 1428 1427 1426 1425 1424 1423 1423 1422 1421 1420 1419 1418 1417 1416 1415 1414 1413 1413 1412 1412 1411 1410 1409 1409 1408 1408 1407 1407
1462 1462 1462 1462 1461 1461 1461 1460 1460 1459 1459 1459 1458 1458 1458 1457 1457 1456 1456 1456 1455 1455 1454 1453 1453 1452 1451 1450 1450 1450 1450 1449 1449 1448 1447 1444 1442 1442 1442 1442 1441 1440 1439 1438 1437 1437 1436 1434 1433 1433 1432 1431 1431 1430 1429 1428 1428 1427 1426 1425 1424 1423 1423 1422 1421 1420 1419 1418 1417 1416 1415 1414 1413 1413 1411 1411 1410 1409 1408 1408 1407 1406 1405 1405 1404 1404
1460 1460 1460 1460 1459 1459 1458 1458 1458 1458 1457 1457 1457 1457 1456 1456 1456 1456 1455 1454 1454 1453 1453 1452 1451 1450 1449 1449 1449 1448 1448 1448 1448 1448 1446 1444 1442 1441 1441 1441 1440 1439 1438 1437 1436 1435 1434 1433 1432 1431 1430 1429 1429 1428 1428 1427 1426 1425 1424 1423 1423 1422 1421 1420 1419 1418 1417 1416 1415 1414 1413 1412 1411 1410 1409 1408 1408 1407 1406 1405 1404 1403 1403 1402 1402 1401
1458 1458 1458 1458 1458 1457 1457 1457 1456 1456 1456 1456 1455 1455 1455 1455 1455 1454 1454 1453 1453 1452 1452 1451 1450 1449 1448 1448 1448 1447 1447 1447 1447 1447 1446 1443 1442 1440 1440 1440 1439 1438 1436 1435 1435 1434 1432 1431 1430 1429 1428 1428 1427 1426 1426 1425 1424 1423 1422 1421 1420 1419 1418 1418 1417 1416 1415 1414 1413 1412 1411 1410 1409 1408 1407 1406 1405 1404 1403 1403 1402 1401 1400 1400 1399 1398
1457 1457 1457 1456 1456 1456 1455 1455 1455 1454 1454 1454 1454 1454 1454 1453 1453 1453 1452 1452 1452 1451 1451 1450 1449 1448 1447 1447 1446 1446 1446 1446 1446 1445 1445 1443 1441 1439 1439 1439 1438 1437 1435 1434 1433 1432 1431 1429 1428 1427 1426 1425 1425 1424 1423 1423 1422 1421 1420 1419 1418 1417 1417 1416 1415 1414 1413 1412 1411 1410 1409 1408 1407 1406 1405 1404 1403 1402 1401 1400 1400 1399 1398 1398 1397 1396
1456 1456 1455 1455 1455 1454 1454 1453 1453 1453 1453 1453 1453 1453 1453 1452 1452 1451 1451 1451 1451 1451 1450 1449 1448 1447 1446 1445 1445 1444 1444 1444 1444 1444 1443 1442 1440 1438 1438 1438 1437 1436 1434 1433 1431 1430 1429 1428 1426 1425 1424 1423 1422 1422 1421 1420 1419 1418 1418 1417 1416 1415 1414 1413 1413 1412 1411 1409 1408 1408 1407 1405 1404 1403 1403 1402 1401 1400 1399 1398 1398 1397 1396 1395 1394 1393
1454 1454 1453 1453 1453 1453 1452 1452 1452 1452 1452 1452 1452 1452 1452 1451 1451 1450 1449 1450 1450 1450 1449 1448 1447 1446 1445 1444 1443 1443 1443 1443 1443 1443 1442 1441 1439 1437 1436 1436 1436 1435 1433 1431 1429 1428 1427 1426 1424 1423 1422 1421 1420 1419 1419 1418 1417 1417 1416 1415 1414 1413 1412 1411 1410 1409 1408 1407 1406 1405 1404 1403 1402 1401 1400 1400 1399 1398 1397 1396 1395 1395 1394 1393 1392 1390
1452 1452 1452 1451 1451 1451 1451 1451 1451 1450 1450 1450 1451 1451 1450 1450 1449 1449 1448 1449 1449 1448 1447 1447 1446 1445 1444 1443 1442 1441 1441 1441 1441 1441 1441 1440 1438 1436 1436 1436 1435 1434 1433 1430 1427 1425 1424 1423 1423 1421 1420 1419 1418 1418 1417 1416 1415 1414 1413 1413 1412 1411 1410 1409 1408 1407 1406 1405 1404 1403 1402 1401 1400 1399 1398 1398 1397 1396 1395 1394 1393 1393 1392 1390 1389 1388
1451 1450 1450 1450 1450 1450 1449 1449 1449 1449 1449 1449 1449 1449 1449 1448 1448 1448 1448 1448 1448 1447 1446 1445 1444 1444 1443 1442 1441 1440 1439 1439 1440 1440 1440 1439 1437 1436 1435 1435 1434 1433 1432 1430 1426 1423 1420 1420 1420 1420 1419 1418 1417 1416 1415 1414 1413 1412 1411 1410 1409 1408 1408 1407 1406 1404 1403 1403 1402 1401 1400 1399 1398 1397 1396 1395 1395 1394 1393 1392 1392 1391 1389 1388 1387 1386
1450 1450 1449 1449 1449 1448 1448 1448 1448 1448 1448 1448 1448 1448 1448 1448 1447 1447 1447 1446 1446 1445 1444 1443 1443 1443 1442 1441 1440 1439 1438 1439 1440 1440 1439 1438 1436 1435 1434 1433 1432 1431 1431 1430 1428 1424 1419 1417 1417 1418 1417 1416 1414 1413 1412 1412 1411 1410 1409 1408 1407 1406 1405 1404 1403 1402 1401 1400 1399 1398 1398 1397 1396 1395 1394 1393 1392 1392 1391 1390 1389 1388 1387 1386 1385 1383
1449 1449 1448 1448 1448 1448 1448 1447 1447 1447 1447 1447 1447 1447 1447 1446 1446 1446 1445 1445 1444 1443 1443 1442 1442 1441 1440 1440 1439 1438 1437 1437 1438 1438 1438 1437 1435 1434 1433 1432 1431 1430 1429 1429 1428 1426 1422 1417 1414 1414 1414 1413 1412 1411 1410 1409 1408 1408 1407 1405 1404 1403 1403 1402 1401 1400 1398 1398 1397 1396 1395 1394 1393 1393 1392 1391 1390 1389 1388 1388 1387 1387 1385 1384 1383 1382
1448 1448 1448 1447 1447 1447 1447 1447 1446 1446 1446 1446 1446 1445 1445 1445 1444 1444 1444 1443 1443 1442 1442 1441 1440 1439 1438 1438 1437 1436 1435 1436 1436 1437 1436 1435 1434 1432 1431 1431 1429 1428 1427 1427 1426 1425 1423 1418 1415 1412 1411 1410 1410 1409 1408 1407 1407 1406 1405 1404 1402 1401 1400 1400 1399 1398 1396 1395 1394 1393 1393 1392 1391 1390 1389 1388 1388 1387 1386 1386 1385 1384 1384 1383 1381 1380
1447 1447 1447 1446 1446 1446 1446 1446 1445 1445 1445 1445 1444 1444 1443 1443 1443 1442 1442 1442 1441 1440 1440 1439 1438 1438 1437 1436 1435 1434 1433 1434 1435 1435 1435 1434 1433 1431 1430 1429 1428 1427 1426 1425 1424 1423 1421 1418 1416 1413 1410 1408 1407 1407 1406 1405 1404 1404 1403 1402 1401 1399 1398 1398 1397 1395 1394 1393 1392 1391 1390 1389 1388 1388 1387 1386 1385 1384 1384 1383 1383 1383 1382 1381 1380 1378
1446 1446 1446 1446 1445 1445 1445 1445 1444 1444 1444 1443 1443 1443 1442 1442 1441 1441 1440 1440 1439 1438 1438 1438 1437 1436 1436 1435 1433 1433 1432 1433 1433 1434 1433 1432 1431 1430 1428 1427 1427 1426 1425 1423 1422 1421 1419 1417 1415 1413 1411 1407 1405 1404 1404 1404 1403 1402 1401 1400 1399 1398 1397 1396 1395 1393 1392 1391 1389 1388 1388 1387 1386 1385 1384 1383 1383 1382 1382 1381 1381 1380 1380 1379 1379 1378
1445 1445 1445 1445 1444 1444 1444 1444 1444 1443 1443 1443 1442 1442 1441 1441 1440 1439 1439 1438 1438 1437 1436 1436 1435 1434 1434 1433 1433 1432 1431 1432 1432 1432 1431 1431 1430 1428 1427 1426 1425 1424 1423 1422 1421 1419 1418 1416 1413 1412 1410 1408 1404 1402 1402 1402 1402 1401 1399 1398 1397 1396 1395 1394 1393 1392 1390 1388 1387 1386 1385 1384 1383 1383 1382 1381 1381 1380 1380 1379 1379 1378 1378 1377 1377 1376
1444 1444 1444 1444 1444 1443 1443 1443 1443 1443 1442 1442 1441 1440 1440 1439 1438 1438 1437 1437 1436 1435 1434 1434 1433 1433 1432 1432 1431 1430 1430 1430 1430 1430 1430 1429 1428 1427 1426 1424 1423 1423 1422 1421 1419 1418 1417 1415 1412 1410 1409 1407 1405 1403 1400 1399 1399 1398 1397 1396 1395 1394 1392 1392 1391 1390 1388 1387 1385 1384 1383 1383 1382 1381 1380 1379 1379 1378 1377 1377 1376 1375 1375 1374 1374 1373
1443 1443 1443 1443 1443 1443 1442 1442 1442 1441 1441 1440 1440 1439 1438 1438 1437 1436 1436 1435 1434 1434 1433 1432 1432 1431 1431 1430 1430 1429 1429 1429 1428 1428 1428 1428 1427 1426 1424 1423 1422 1421 1420 1419 1418 1417 1416 1414 1412 1409 1407 1405 1404 1402 1400 1399 1397 1396 1394 1393 1393 1391 1390 1389 1388 1388 1386 1385 1384 1383 1382 1381 1380 1379 1378 1377 1376 1375 1374 1373 1373 1373 1372 1371 1371 1370
1443 1443 1442 1442 1442 1442 1441 1441 1440 1440 1439 1439 1438 1438 1437 1436 1436 1435 1434 1433 1433 1432 1431 1431 1430 1429 1429 1428 1428 1428 1428 1427 1427 1427 1427 1426 1425 1424 1423 1421 1420 1419 1418 1418 1417 1416 1415 1413 1411 1409 1407 1404 1402 1400 1399 1398 1396 1394 1393 1391 1390 1389 1388 1388 1387 1386 1385 1383 1382 1381 1380 1379 1378 1377 1376 1375 1374 1373 1372 1371 1371 1370 1370 1369 1368 1367
1442 1442 1441 1441 1441 1441 1440 1440 1439 1439 1438 1438 1437 1436 1435 1435 1434 1433 1433 1432 1431 1430 1430 1429 1428 1428 1427 1427 1427 1426 1426 1426 1426 1425 1425 1424 1423 1423 1421 1420 1418 1417 1416 1416 1415 1414 1413 1411 1409 1408 1406 1404 1401 1399 1397 1396 1395 1394 1392 1390 1388 1386 1386 1386 1385 1384 1383 1382 1381 1379 1378 1377 1376 1375 1374 1373 1373 1372 1371 1370 1369 1368 1368 1367 1366 1365
1441 1441 1440 1440 1440 1439 1439 1438 1438 1437 1437 1436 1435 1435 1434 1433 1433 1432 1431 1430 1430 1429 1428 1428 1427 1426 1426 1425 1425 1425 1425 1424 1424 1423 1423 1423 1422 1421 1419 1418 1417 1416 1415 1414 1413 1412 1411 1409 1408 1406 1404 1403 1401 1398 1396 1394 1393 1393 1392 1390 1387 1385 1383 1383 1383 1382 1381 1380 1379 1378 1377 1376 1374 1373 1373 1372 1371 1370 1369 1368 1367 1366 1366 1365 1364 1363
1440 1440 1439 1439 1439 1438 1438 1437 1437 1436 1435 1435 1434 1433 1433 1432 1431 1430 1429 1429 1428 1428 1427 1426 1425 1425 1424 1423 1423 1423 1423 1423 1422 1421 1421 1420 1419 1418 1417 1416 1415 1414 1413 1412 1411 1409 1408 1408 1406 1404 1403 1401 1400 1398 1395 1393 1392 1392 1391 1389 1387 1384 1382 1380 1380 1381 1380 1378 1377 1376 1376 1374 1373 1372 1371 1369 1368 1368 1367 1366 1365 1364 1364 1363 1362 1361
1439 1439 1438 1438 1438 1437 1437 1436 1436 1435 1434 1433 1433 1432 1431 1431 1430 1429 1428 1428 1427 1426 1426 1425 1424 1423 1422 1421 1421 1421 1421 1420 1420 1419 1418 1418 1417 1416 1415 1414 1413 1413 1412 1411 1409 1408 1406 1406 1404 1403 1401 1400 1399 1397 1394 1391 1390 1389 1389 1388 1387 1384 1381 1378 1378 1378 1378 1377 1375 1374 1373 1372 1371 1369 1368 1367 1366 1365 1364 1363 1363 1362 1362 1361 1360 1359
1438 1438 1437 1437 1437 1436 1436 1435 1434 1433 1433 1432 1431 1431 1430 1430 1429 1428 1427 1427 1426 1425 1425 1424 1423 1422 1421 1420 1419 1418 1418 1418 1418 1417 1416 1416 1415 1415 1414 1413 1412 1411 1410 1410 1408 1406 1405 1403 1402 1401 1400 1399 1398 1395 1393 1390 1388 1387 1386 1386 1385 1384 1381 1378 1376 1376 1375 1374 1373 1372 1371 1370 1369 1368 1366 1365 1363 1363 1362 1361 1360 1360 1359 1358 1358 1357
1437 1437 1436 1436 1435 1435 1434 1434 1433 1432 1432 1431 1430 1430 1429 1428 1428 1427 1426 1426 1425 1424 1423 1423 1422 1421 1419 1418 1418 1417 1416 1416 1415 1415 1415 1414 1414 1413 1413 1412 1411 1410 1409 1408 1407 1405 1404 1402 1400 1399 1398 1397 1396 1393 1391 1389 1387 1385 1384 1383 1383 1381 1379 1377 1376 1374 1373 1372 1371 1370 1369 1369 1368 1366 1364 1363 1361 1360 1360 1359 1358 1357 1356 1356 1355 1354
1436 1436 1435 1435 1434 1434 1433 1433 1432 1431 1430 1430 1429 1428 1428 1428 1427 1426 1425 1425 1424 1423 1422 1421 1421 1419 1418 1417 1416 1415 1414 1414 1413 1413 1413 1412 1412 1411 1411 1410 1409 1408 1408 1406 1405 1404 1403 1401 1399 1398 1396 1395 1393 1391 1389 1388 1386 1384 1382 1381 1380 1379 1377 1375 1374 1373 1372 1371 1369 1368 1367 1367 1366 1364 1363 1361 1359 1358 1357 1357 1356 1355 1354 1353 1352 1351
1435 1434 1434 1434 1433 1433 1432 1431 1431 1430 1429 1428 1428 1428 1427 1427 1426 1425 1424 1423 1423 1422 1421 1420 1419 1418 1417 1416 1415 1414 1413 1412 1412 1411 1411 1410 1410 1409 1409 1408 1407 1407 1406 1404 1403 1402 1400 1399 1398 1397 1395 1393 1391 1388 1386 1385 1384 1383 1381 1379 1378 1377 1375 1373 1372 1371 1370 1369 1368 1367 1366 1365 1364 1363 1361 1359 1358 1356 1355 1354 1353 1353 1352 1351 1350 1348
1434 1433 1433 1433 1432 1431 1431 1430 1429 1429 1428 1427 1427 1426 1426 1425 1425 1424 1423 1422 1422 1421 1420 1419 1418 1417 1416 1415 1414 1413 1413 1411 1410 1409 1409 1408 1408 1407 1407 1406 1405 1404 1403 1402 1401 1400 1398 1397 1396 1395 1393 1392 1389 1386 1383 1383 1382 1381 1379 1378 1377 1375 1373 1371 1370 1369 1369 1368 1367 1366 1365 1364 1363 1361 1359 1358 1355 1353 1352 1352 1351 1350 1350 1349 1348 1346
1433 1432 1432 1431 1431 1430 1429 1429 1428 1428 1427 1426 1425 1425 1424 1424 1423 1423 1422 1421 1420 1419 1418 1418 1417 1416 1414 1413 1413 1412 1412 1411 1409 1408 1408 1407 1406 1406 1405 1404 1403 1402 1401 1400 1398 1397 1396 1394 1393 1392 1391 1390 1388 1385 1382 1380 1379 1379 1378 1377 1375 1373 1372 1370 1369 1368 1368 1367 1366 1365 1364 1363 1362 1361 1359 1357 1354 1351 1350 1349 1348 1348 1347 1347 1346 1344
1432 1431 1431 1430 1429 1429 1428 1428 1427 1426 1426 1425 1424 1423 1423 1422 1422 1421 1420 1420 1419 1418 1417 1416 1415 1414 1413 1412 1412 1411 1410 1409 1408 1407 1406 1406 1405 1404 1403 1402 1401 1400 1399 1397 1396 1395 1393 1391 1390 1388 1388 1388 1386 1384 1382 1379 1378 1377 1376 1375 1374 1373 1371 1369 1368 1367 1367 1366 1364 1363 1363 1361 1360 1359 1358 1356 1353 1350 1347 1346 1345 1345 1345 1344 1344 1343
1430 1430 1429 1429 1428 1428 1427 1426 1426 1425 1424 1424 1423 1422 1421 1421 1420 1419 1419 1418 1417 1416 1416 1415 1414 1413 1412 1411 1410 1410 1409 1408 1407 1406 1405 1404 1403 1403 1401 1400 1400 1399 1397 1396 1394 1393 1392 1390 1387 1385 1385 1385 1385 1384 1382 1379 1377 1376 1374 1373 1373 1372 1370 1368 1367 1366 1365 1364 1363 1361 1360 1359 1358 1356 1355 1354 1351 1348 1345 1343 1342 1342 1342 1342 1342 1341